• în Republica Moldova
  • Lista ţărilor
  • Pe 7 zile
  • Temperatura apei
  • Hartă satelitară
  • Meteo pe hartă
  • Widget-uri
  • user-avatar
    Intrare

    Meteo pe oră la Kitzbuhel

    Astăzi, 24 Aprilie, Luni

    Timp Temperatura Precipitaţii Vânt Presiune Umiditate
    00:00 -2°C° 0 mm 1 m/s 678 mmHg 95%
    01:00 -6°C° 0 mm 1 m/s 677 mmHg 96%
    02:00 -6°C° 0 mm 1 m/s 676 mmHg 95%
    03:00 -4°C° 0 mm 1 m/s 676 mmHg 93%
    04:00 -4°C° 0 mm 1 m/s 676 mmHg 92%
    05:00 -2°C° 0 mm 1 m/s 677 mmHg 90%
    06:00 -1°C° 0 mm 2 m/s 677 mmHg 89%
    07:00 +2°C° 0 mm 2 m/s 677 mmHg 88%
    08:00 +5°C° 0 mm 1 m/s 677 mmHg 87%
    09:00 +7°C° 0 mm 1 m/s 677 mmHg 86%
    10:00 +8°C° 0 mm 1 m/s 677 mmHg 85%
    11:00 +9°C° 0 mm 1 m/s 677 mmHg 83%
    12:00 +10°C° 0 mm 1 m/s 676 mmHg 81%
    13:00 +11°C° 0 mm 1 m/s 676 mmHg 80%
    14:00 +11°C° 0,1 mm 1 m/s 676 mmHg 79%
    15:00 +11°C° 0,1 mm 1 m/s 675 mmHg 79%
    16:00 +11°C° 0,1 mm 1 m/s 675 mmHg 78%
    17:00 +10°C° 0,1 mm 1 m/s 674 mmHg 83%
    18:00 +8°C° 0,1 mm 1 m/s 674 mmHg 88%
    19:00 +6°C° 0,1 mm 1 m/s 673 mmHg 93%
    20:00 +5°C° 0 mm 2 m/s 673 mmHg 92%
    21:00 +5°C° 0 mm 2 m/s 674 mmHg 92%
    22:00 +4°C° 0 mm 3 m/s 674 mmHg 92%
    23:00 +3°C° 0 mm 3 m/s 673 mmHg 92%

    Mâine, 25 Aprilie, Marţi

    Timp Temperatura Precipitaţii Vânt Presiune Umiditate
    00:00 +3°C° 0 mm 3 m/s 673 mmHg 92%
    01:00 +3°C° 0 mm 3 m/s 673 mmHg 92%
    02:00 +3°C° 0 mm 3 m/s 672 mmHg 91%
    03:00 +3°C° 0 mm 3 m/s 672 mmHg 91%
    04:00 +2°C° 0 mm 3 m/s 671 mmHg 91%
    05:00 +3°C° 0 mm 3 m/s 671 mmHg 90%
    06:00 +4°C° 0 mm 3 m/s 671 mmHg 89%
    07:00 +5°C° 0 mm 3 m/s 671 mmHg 88%
    08:00 +8°C° 0 mm 2 m/s 671 mmHg 83%
    09:00 +9°C° 0 mm 2 m/s 671 mmHg 79%
    10:00 +12°C° 0 mm 1 m/s 671 mmHg 75%
    11:00 +12°C° 0,2 mm 2 m/s 671 mmHg 75%
    12:00 +13°C° 0,2 mm 2 m/s 671 mmHg 74%
    13:00 +13°C° 0,2 mm 2 m/s 671 mmHg 74%
    14:00 +12°C° 0,7 mm 2 m/s 670 mmHg 79%
    15:00 +12°C° 0,7 mm 2 m/s 670 mmHg 83%
    16:00 +10°C° 0,7 mm 3 m/s 670 mmHg 88%
    17:00 +9°C° 1,4 mm 3 m/s 670 mmHg 91%
    18:00 +7°C° 1,4 mm 2 m/s 669 mmHg 95%
    19:00 +6°C° 1,4 mm 2 m/s 669 mmHg 98%
    20:00 +6°C° 1,1 mm 2 m/s 670 mmHg 98%
    21:00 +6°C° 1,1 mm 2 m/s 670 mmHg 98%
    22:00 +5°C° 1,1 mm 2 m/s 670 mmHg 98%
    23:00 +5°C° 0,4 mm 2 m/s 670 mmHg 98%

    Poimâine, 26 Aprilie, Miercuri

    Timp Temperatura Precipitaţii Vânt Presiune Umiditate
    00:00 +5°C° 0,4 mm 2 m/s 669 mmHg 98%
    01:00 +4°C° 0,4 mm 3 m/s 669 mmHg 98%
    02:00 +3°C° 0,7 mm 3 m/s 669 mmHg 98%
    03:00 +3°C° 0,7 mm 3 m/s 669 mmHg 98%
    04:00 +2°C° 0,7 mm 3 m/s 669 mmHg 98%
    05:00 +2°C° 1 mm 3 m/s 669 mmHg 98%
    06:00 +3°C° 1 mm 2 m/s 669 mmHg 98%
    07:00 +3°C° 1 mm 2 m/s 669 mmHg 97%
    08:00 +3°C° 1,3 mm 2 m/s 669 mmHg 97%
    09:00 +3°C° 1,3 mm 2 m/s 669 mmHg 97%
    10:00 +3°C° 1,3 mm 2 m/s 669 mmHg 97%
    11:00 +3°C° 1,2 mm 2 m/s 669 mmHg 97%
    12:00 +3°C° 1,2 mm 2 m/s 669 mmHg 97%
    13:00 +3°C° 1,2 mm 2 m/s 669 mmHg 97%
    14:00 +3°C° 1,2 mm 2 m/s 669 mmHg 97%
    15:00 +4°C° 1,2 mm 1 m/s 669 mmHg 97%
    16:00 +4°C° 1,2 mm 1 m/s 669 mmHg 97%
    17:00 +4°C° 0,8 mm 1 m/s 669 mmHg 98%
    18:00 +3°C° 0,8 mm 1 m/s 669 mmHg 98%
    19:00 +3°C° 0,8 mm 1 m/s 669 mmHg 98%
    20:00 +3°C° 2 mm 1 m/s 669 mmHg 98%
    21:00 +2°C° 2 mm 1 m/s 669 mmHg 98%
    22:00 +2°C° 2 mm 1 m/s 669 mmHg 98%
    23:00 +2°C° 0,7 mm 1 m/s 669 mmHg 98%

    27 Aprilie, Joi

    Timp Temperatura Precipitaţii Vânt Presiune Umiditate
    00:00 +2°C° 0,7 mm 1 m/s 669 mmHg 98%
    01:00 +2°C° 0,7 mm 1 m/s 669 mmHg 98%
    02:00 +1°C° 0,8 mm 1 m/s 669 mmHg 98%
    03:00 +1°C° 0,8 mm 1 m/s 669 mmHg 98%
    04:00 +1°C° 0,8 mm 1 m/s 669 mmHg 98%
    05:00 +2°C° 0,9 mm 1 m/s 669 mmHg 98%
    06:00 +2°C° 0,9 mm 1 m/s 669 mmHg 98%
    07:00 +2°C° 0,9 mm 1 m/s 670 mmHg 98%
    08:00 +2°C° 0,7 mm 1 m/s 670 mmHg 98%
    09:00 +3°C° 0,7 mm 1 m/s 670 mmHg 98%
    10:00 +3°C° 0,7 mm 1 m/s 670 mmHg 98%
    11:00 +2°C° 0,9 mm 2 m/s 671 mmHg 98%
    12:00 +2°C° 0,9 mm 2 m/s 671 mmHg 98%
    13:00 +3°C° 0,9 mm 2 m/s 671 mmHg 97%
    14:00 +2°C° 1,2 mm 2 m/s 671 mmHg 97%
    15:00 +2°C° 1,2 mm 2 m/s 671 mmHg 97%
    16:00 +2°C° 1,2 mm 2 m/s 671 mmHg 97%
    17:00 +2°C° 1,2 mm 2 m/s 671 mmHg 97%
    18:00 +1°C° 1,2 mm 2 m/s 671 mmHg 98%
    19:00 +1°C° 1,2 mm 2 m/s 671 mmHg 98%
    20:00 -1°C° 1 mm 2 m/s 672 mmHg 98%
    21:00 -1°C° 1 mm 2 m/s 672 mmHg 98%
    22:00 -1°C° 1 mm 2 m/s 672 mmHg 98%
    23:00 -2°C° 0,8 mm 2 m/s 672 mmHg 98%

    28 Aprilie, Vineri

    Timp Temperatura Precipitaţii Vânt Presiune Umiditate
    00:00 -2°C° 0,8 mm 2 m/s 672 mmHg 98%
    01:00 -2°C° 0,8 mm 2 m/s 672 mmHg 98%
    02:00 -2°C° 0,8 mm 2 m/s 672 mmHg 98%
    03:00 -3°C° 0,8 mm 2 m/s 672 mmHg 98%
    04:00 -3°C° 0,8 mm 2 m/s 671 mmHg 98%
    05:00 -3°C° 0,8 mm 2 m/s 672 mmHg 98%
    06:00 -2°C° 0,8 mm 2 m/s 672 mmHg 98%
    07:00 -2°C° 0,8 mm 2 m/s 672 mmHg 98%
    08:00 -2°C° 0,6 mm 2 m/s 672 mmHg 98%
    09:00 -1°C° 0,6 mm 2 m/s 672 mmHg 98%
    10:00 -1°C° 0,6 mm 2 m/s 673 mmHg 97%
    11:00 +1°C° 0,3 mm 2 m/s 673 mmHg 97%
    12:00 +1°C° 0,3 mm 2 m/s 673 mmHg 97%
    13:00 +1°C° 0,3 mm 2 m/s 673 mmHg 97%
    14:00 +1°C° 0,2 mm 2 m/s 673 mmHg 97%
    15:00 +1°C° 0,2 mm 2 m/s 673 mmHg 96%
    16:00 +1°C° 0,2 mm 2 m/s 673 mmHg 95%
    17:00 -1°C° 0,1 mm 2 m/s 673 mmHg 96%
    18:00 -2°C° 0,1 mm 2 m/s 673 mmHg 96%
    19:00 -4°C° 0,1 mm 2 m/s 673 mmHg 97%
    20:00 -5°C° 0 mm 2 m/s 674 mmHg 96%
    21:00 -5°C° 0 mm 2 m/s 674 mmHg 95%
    22:00 -6°C° 0 mm 2 m/s 674 mmHg 94%
    23:00 -7°C° 0 mm 2 m/s 674 mmHg 92%

    29 Aprilie, Sâmbătă

    Timp Temperatura Precipitaţii Vânt Presiune Umiditate
    00:00 -8°C° 0 mm 2 m/s 674 mmHg 91%
    01:00 -9°C° 0 mm 2 m/s 674 mmHg 89%
    02:00 -9°C° 0 mm 2 m/s 674 mmHg 89%
    03:00 -9°C° 0 mm 2 m/s 674 mmHg 88%
    04:00 -8°C° 0 mm 2 m/s 675 mmHg 88%
    05:00 -7°C° 0 mm 2 m/s 675 mmHg 88%
    06:00 -5°C° 0 mm 2 m/s 676 mmHg 89%
    07:00 -3°C° 0 mm 2 m/s 677 mmHg 89%
    08:00 -1°C° 0 mm 2 m/s 677 mmHg 88%
    09:00 +2°C° 0 mm 1 m/s 677 mmHg 87%
    10:00 +4°C° 0 mm 1 m/s 677 mmHg 85%
    11:00 +5°C° 0 mm 1 m/s 677 mmHg 85%
    12:00 +5°C° 0 mm 1 m/s 676 mmHg 85%
    13:00 +6°C° 0 mm 1 m/s 676 mmHg 84%
    14:00 +6°C° 0 mm 1 m/s 676 mmHg 84%
    15:00 +6°C° 0 mm 1 m/s 676 mmHg 84%
    16:00 +6°C° 0 mm 1 m/s 676 mmHg 83%
    17:00 +3°C° 0 mm 1 m/s 675 mmHg 87%
    18:00 0°C° 0 mm 1 m/s 675 mmHg 90%
    19:00 -3°C° 0 mm 1 m/s 674 mmHg 93%
    20:00 -3°C° 0 mm 1 m/s 674 mmHg 91%
    21:00 -2°C° 0 mm 1 m/s 675 mmHg 90%
    22:00 -4°C° 0 mm 2 m/s 675 mmHg 88%
    23:00 -4°C° 0 mm 2 m/s 676 mmHg 88%
    Arată mai mult